Weather History for Sarasota, FL

Change the Weather History Date:

Sunday, December 2, 2012

  Actual Average Record
Temperature  
Mean Temperature 72 °F 66 °F  
Max Temperature 82 °F 76 °F 88 °F (1991)
Min Temperature 61 °F 56 °F 35 °F (1963)
Degree Days  
Heating Degree Days 0 2  
Month to date heating degree days 0 4  
Since 1 July heating degree days 41 37  
Cooling Degree Days 7 3  
Month to date cooling degree days 11 6  
Year to date cooling degree days 3735 3306  
Growing Degree Days 22 (Base 50)    
Moisture  
Dew Point 59 °F    
Average Humidity 73    
Maximum Humidity 97    
Minimum Humidity 37    
Precipitation  
Precipitation 0.00 in 0.06 in 1.29 in (1996)
Month to date precipitation 0.00 0.13  
Year to date precipitation 44.04 50.61  
Sea Level Pressure  
Sea Level Pressure 30.21 in    
Wind  
Wind Speed 7 mph (ENE)    
Max Wind Speed 16 mph    
Max Gust Speed 20 mph    
Visibility 10 miles    
Events      
T = Trace of Precipitation, MM = Missing Value Source: NWS Daily Summary

Daily Weather History Graph

Daily Weather History Graph

Search for Another Location

Airport:

Trip Planner

Search our weather history database for the weather conditions in past years. The results will help you decide how hot, cold, wet, or windy it might be!

Date:

Astronomy

Dec. 02, 2012 Rise Set
Actual Time 7:04 AM EST 5:35 PM EST
Civil Twilight 6:38 AM EST 6:00 PM EST
Nautical Twilight 6:10 AM EST 6:29 PM EST
Astronomical Twilight 5:41 AM EST 6:58 PM EST
Moon 9:13 PM EST 10:00 AM EST
Length of Visible Light 11h 21m
Length of Day
10h 31m
Waning Gibbous, 86% of the Moon is Illuminated
Dec 2
Waning Gibbous
Dec 6
Last Quarter
Dec 13
New
Dec 20
First Quarter
Dec 28
Full

Hourly Weather History & Observations

Time (EST) Temp. Heat Index Dew Point Humidity Pressure Visibility Wind Dir Wind Speed Gust Speed Precip Events Conditions
12:53 AM 61.0 °F - 59.0 °F 93% 30.22 in 10.0 mi NE 4.6 mph - N/A   Clear
1:53 AM 61.0 °F - 59.0 °F 93% 30.21 in 10.0 mi ENE 5.8 mph - N/A   Clear
2:53 AM 62.1 °F - 60.1 °F 93% 30.20 in 10.0 mi NE 5.8 mph - N/A   Overcast
3:53 AM 62.1 °F - 60.1 °F 93% 30.19 in 10.0 mi ENE 5.8 mph - N/A   Mostly Cloudy
4:53 AM 62.1 °F - 60.1 °F 93% 30.19 in 10.0 mi ENE 5.8 mph - N/A   Clear
5:53 AM 63.0 °F - 60.1 °F 90% 30.21 in 10.0 mi NE 5.8 mph - N/A   Scattered Clouds
6:53 AM 62.1 °F - 60.1 °F 93% 30.23 in 10.0 mi NE 5.8 mph - N/A   Clear
7:53 AM 63.0 °F - 61.0 °F 93% 30.24 in 10.0 mi ENE 5.8 mph - N/A   Overcast
8:53 AM 68.0 °F - 63.0 °F 84% 30.25 in 10.0 mi ENE 5.8 mph - N/A   Clear
9:53 AM 73.0 °F - 63.0 °F 71% 30.26 in 10.0 mi ENE 9.2 mph - N/A   Clear
10:53 AM 78.1 °F - 62.1 °F 58% 30.25 in 10.0 mi East 10.4 mph 19.6 mph N/A   Clear
11:53 AM 79.0 °F - 61.0 °F 54% 30.23 in 10.0 mi East 13.8 mph - N/A   Partly Cloudy
12:53 PM 82.0 °F 81.7 °F 57.0 °F 42% 30.20 in 10.0 mi East 10.4 mph - N/A   Scattered Clouds
1:53 PM 82.0 °F 81.3 °F 54.0 °F 38% 30.18 in 10.0 mi ENE 10.4 mph - N/A   Partly Cloudy
2:53 PM 81.0 °F 80.8 °F 55.9 °F 42% 30.17 in 10.0 mi East 11.5 mph - N/A   Partly Cloudy
4:53 PM 79.0 °F - 54.0 °F 42% 30.17 in 10.0 mi NE 9.2 mph - N/A   Clear
5:53 PM 75.0 °F - 54.0 °F 48% 30.17 in 10.0 mi NE 3.5 mph - N/A   Clear
6:53 PM 72.0 °F - 55.0 °F 55% 30.18 in 10.0 mi NE 3.5 mph - N/A   Clear
7:53 PM 68.0 °F - 55.9 °F 65% 30.20 in 10.0 mi East 4.6 mph - N/A   Clear
8:53 PM 66.9 °F - 59.0 °F 76% 30.21 in 10.0 mi East 8.1 mph - N/A   Clear
9:53 PM 66.0 °F - 61.0 °F 84% 30.21 in 10.0 mi East 6.9 mph - N/A   Clear
10:53 PM 64.0 °F - 61.0 °F 90% 30.21 in 10.0 mi East 5.8 mph - N/A   Clear
11:53 PM 63.0 °F - 61.0 °F 93% 30.20 in 10.0 mi East 5.8 mph - N/A   Clear